This is the latest recevied weather packets stored in our database for station/object HK4DAP-11. If no packets are shown the sender has not sent any weather packets the latest 1 day(s).
| Time | Temp. | Humidity | Pressure | Rain* | Wind** | Luminosity | Snow |
|---|---|---|---|---|---|---|---|
| 1778168135 | 24.44° C | 78% | 851.6 hPa | - | - | - | - |
| 1778167835 | 24.44° C | 77% | 851.5 hPa | - | - | - | - |
| 1778167535 | 24.44° C | 76% | 851.6 hPa | - | - | - | - |
| 1778166034 | 24.44° C | 75% | 851.9 hPa | - | - | - | - |
| 1778165434 | 24.44° C | 75% | 852 hPa | - | - | - | - |
| 1778163633 | 24.44° C | 77% | 851.9 hPa | - | - | - | - |
| 1778163333 | 24.44° C | 76% | 852 hPa | - | - | - | - |
| 1778161532 | 24.44° C | 79% | 852.2 hPa | - | - | - | - |
| 1778159731 | 24.44° C | 79% | 852.3 hPa | - | - | - | - |
| 1778159431 | 24.44° C | 80% | 852.3 hPa | - | - | - | - |
| 1778159131 | 25° C | 78% | 852.2 hPa | - | - | - | - |
| 1778157330 | 25° C | 78% | 852.2 hPa | - | - | - | - |
| 1778157030 | 25° C | 78% | 852.3 hPa | - | - | - | - |
| 1778154929 | 25° C | 80% | 852.1 hPa | - | - | - | - |
| 1778153128 | 25° C | 79% | 851.9 hPa | - | - | - | - |
| 1778152828 | 24.44° C | 79% | 851.9 hPa | - | - | - | - |
| 1778151628 | 25° C | 80% | 851.8 hPa | - | - | - | - |
| 1778150727 | 25° C | 79% | 851.6 hPa | - | - | - | - |
| 1778148926 | 25° C | 80% | 851.7 hPa | - | - | - | - |
| 1778148626 | 25° C | 79% | 851.5 hPa | - | - | - | - |
| 1778147425 | 25.56° C | 78% | 851.4 hPa | - | - | - | - |
| 1778147125 | 25° C | 79% | 851.5 hPa | - | - | - | - |
| 1778146825 | 25° C | 80% | 851.3 hPa | - | - | - | - |
| 1778146525 | 25° C | 80% | 851.3 hPa | - | - | - | - |
| 1778146225 | 25° C | 79% | 851.3 hPa | - | - | - | - |
* Rain since midnight (hover to see other rain measurements)
** Current wind speed in m/s (hover to see current wind gust speed)